Location: Aulendorf
(47.9508°N, 9.6374°E)
Time: 02:30:56
(UTC+00:00)

Daily predictions for brighter satellites

Satellite Brightness Start Highest point End
(mag) Time Altitude Azimuth Time Altitude Azimuth Time Altitude Azimuth
Cosmos 292 Rocket 4.5 00:04:41 29° SSE 00:06:33 42° ESE 00:11:05 10° NE
Cosmos 2227 Rocket 2.2 00:05:20 30° SSW 00:08:19 85° WNW 00:14:02 10° NNE
Cosmos 1892 3.4 00:09:05 31° WSW 00:09:55 36° WNW 00:13:13 10° N
Cosmos 990 Rocket 3.9 00:08:24 33° SSW 00:10:43 80° ESE 00:15:52 10° NNE
IDEFIX/ARIANE 42P 4.3 00:06:56 10° NE 00:11:06 23° E 00:14:28 13° SE
Cosmos 332 Rocket 4.1 00:09:47 29° SW 00:12:10 63° WNW 00:17:02 10° NNE
SL-12 R/B(2) 4.3 00:09:27 25° SSW 00:14:46 75° SE 00:24:31 10° NE
CENTAUR R/B 2.4 00:12:18 29° SSW 00:15:24 74° SE 00:22:26 10° NE
CZ-2C R/B 4.4 00:11:40 10° ESE 00:16:06 28° ENE 00:20:38 10° N
CZ-2D R/B 4.1 00:14:42 10° NE 00:18:33 20° E 00:22:20 10° SE
GEOS 3 Rocket 3.7 00:13:37 10° NE 00:18:48 76° NW 00:22:02 23° SW
Meteor 1-21 Rocket 4.2 00:18:17 29° S 00:21:22 83° ESE 00:27:06 10° NNE
H-2A R/B 3.2 00:18:12 10° N 00:22:01 32° WNW 00:24:02 21° WSW
Cosmos 1975 Rocket 3.3 00:21:39 31° SSE 00:23:33 60° E 00:27:53 10° NNE
Cosmos 1538 Rocket 4.0 00:19:19 10° NNW 00:24:29 68° WSW 00:27:12 28° S
SL-4 R/B 3.0 00:23:25 10° W 00:26:25 28° WSW 00:26:25 28° WSW
Cosmos 2074 Rocket 4.5 00:24:31 24° SW 00:28:06 50° WNW 00:34:08 10° N
Cosmos 2297 Rocket 3.3 00:24:23 14° WSW 00:28:48 37° NW 00:34:02 10° NNE
Cosmos 2219 3.1 00:27:36 29° SSW 00:30:36 82° ESE 00:36:15 10° NNE
Cosmos 2341 Rocket 4.3 00:28:16 22° SSE 00:32:16 62° E 00:38:25 10° NNE
Cosmos 2084 Rocket 4.2 00:29:51 19° WSW 00:32:36 47° NW 00:36:36 10° NNE
Cosmos 1455 Rocket 3.1 00:31:12 10° NNW 00:35:38 69° W 00:37:36 32° S
Aureole 1 Rocket 2.6 00:38:34 39° SSW 00:39:52 89° ESE 00:44:15 10° NNE
Cosmos 1825 4.0 00:42:47 15° W 00:43:58 17° WNW 00:46:18 10° NNW
Cosmos 372 Rocket 4.2 00:42:35 26° S 00:45:28 64° ESE 00:50:39 10° NNE
ADEOS II 3.9 00:42:07 10° NE 00:46:13 23° E 00:50:18 10° SE
Meteor 2-1 Rocket 4.3 00:43:09 10° NNW 00:49:06 86° WSW 00:53:19 20° S
Cosmos 1025 Rocket 4.0 00:50:34 23° WSW 00:52:34 36° WNW 00:56:35 10° N
Cosmos 923 Rocket 3.9 00:47:17 10° NNW 00:52:35 87° WSW 00:56:51 16° SSE
BREEZE-M DEB (TANK) 2.3 00:54:25 10° WNW 00:58:48 37° SW 00:58:59 36° SSW
Resurs 1-4 Rocket 2.9 00:54:06 10° NNE 00:59:08 44° E 01:03:09 16° SSE
NOSS 3-2 (A) 3.2 00:56:57 23° SW 01:00:21 87° NW 01:06:39 10° NE
Cosmos 1937 Rocket 3.6 00:58:06 24° S 01:01:18 75° ESE 01:06:34 10° NNE
Cosmos 1606 2.4 00:58:42 10° N 01:02:18 82° W 01:04:04 28° S
Cosmos 2263 Rocket 2.2 00:58:49 24° SSW 01:02:19 82° WNW 01:07:55 10° NNE
CZ-4C R/B 3.9 00:59:50 10° W 01:04:10 28° NNW 01:09:28 10° NNE
Cosmos 1898 Rocket 3.5 01:01:19 24° SSW 01:04:27 78° WNW 01:09:39 10° NNE
NOSS 3-2 (C) 3.6 01:03:08 22° S 01:06:18 52° ESE 01:12:13 10° NE
Orbus 7S? 2.9 01:04:49 10° NW 01:07:33 79° NE 01:11:41 10° SE
MOZ.5/SAFIR/RUBIN 5/SL-8 3.8 01:05:47 22° S 01:08:40 62° WSW 01:13:17 10° NNW
Cosmos 2218 Rocket 4.0 01:04:28 20° S 01:08:58 88° E 01:15:12 10° N
Helios 1A Rocket 3.7 01:12:04 25° SW 01:13:18 30° W 01:16:41 10° NW
BlueWalker 3 3.5 01:11:08 10° WNW 01:14:37 35° N 01:18:06 10° ENE
Cosmos 2366 rocket 4.0 01:11:40 20° SSW 01:16:14 80° W 01:22:31 10° N
Iridium 921 4.4 01:14:40 25° S 01:16:32 84° E 01:20:00 10° N
Cosmos 1461 2.7 01:14:31 26° SSW 01:16:37 75° SE 01:20:31 10° NE
Cosmos 1844 Rocket 3.9 01:17:43 12° SSE 01:22:19 33° ESE 01:27:16 10° NE
BREEZE-M DEB (TANK) 2.6 01:25:57 26° S 01:25:57 26° S 01:28:19 10° SSE
MSX 3.8 01:22:58 10° NNE 01:28:45 85° ESE 01:33:23 16° SSW
Cosmos 1680 Rocket 3.7 01:29:47 10° NNW 01:34:50 52° WSW 01:39:26 12° S
ALOS 3.7 01:31:03 10° NNE 01:35:13 32° E 01:39:21 10° SSE
Cosmos 1818 3.8 01:30:50 10° NW 01:36:07 49° WSW 01:41:20 10° SSE
Cosmos 2112 Rocket 4.1 01:31:54 10° NNW 01:37:00 59° WSW 01:42:04 10° S
SL-16 R/B 3.0 01:32:05 10° SSE 01:38:15 66° ENE 01:44:26 10° N
SL-16 R/B 3.5 01:34:03 10° NW 01:38:24 23° WSW 01:41:09 16° SW
Cosmos 1603 3.8 01:37:55 10° NNW 01:43:43 89° ENE 01:49:27 10° SSE
Cosmos 1869 4.4 01:41:47 10° NNW 01:44:53 25° W 01:46:40 18° SW
Cosmos 1544 Rocket 4.4 01:43:05 10° NNW 01:47:05 33° W 01:49:58 16° SSW
USA 234 4.1 01:40:56 10° E 01:47:17 55° NNE 01:53:38 10° NW
COSMOS 2441 4.4 01:43:20 10° NNE 01:48:10 87° E 01:52:26 13° SSW
Meteor 1-28 Rocket 3.3 01:45:03 10° SSE 01:48:33 68° ENE 01:52:05 10° N
IDEFIX/ARIANE 42P 2.9 01:45:49 10° N 01:50:56 54° WNW 01:55:13 14° SW
Cosmos 2228 3.7 01:48:41 10° NNW 01:52:41 38° W 01:55:50 15° SSW
Cosmos 2227 Rocket 4.2 01:49:09 10° W 01:53:14 20° NW 01:57:21 10° N
Cosmos 1943 3.4 01:48:24 10° NW 01:53:49 51° WSW 01:59:13 10° S
CZ-2C R/B 2.9 01:51:20 12° S 01:56:06 48° W 02:01:19 10° NNW
CZ-2C R/B 3.1 01:50:36 10° NNE 01:56:06 79° WNW 02:00:50 12° SSW
Cosmos 1437 Rocket 2.7 01:53:28 15° SSW 01:56:35 77° WNW 02:00:23 10° N
CZ-2D R/B 2.3 01:53:44 10° N 01:59:03 65° WNW 02:03:47 13° SSW
FENGYUN 3A 3.7 01:56:00 10° NNE 02:01:25 90° ESE 02:06:47 10° SSW
Cosmos 1727 Rocket 4.2 01:58:30 10° NNW 02:04:41 57° W 02:10:52 10° SSW
CENTAUR R/B 3.9 02:01:02 10° W 02:06:43 36° NNW 02:13:38 10° NE
H-2A R/B 4.4 02:05:12 10° N 02:08:47 32° WNW 02:12:02 12° SW
Cosmos 2239 Rocket 4.5 02:02:39 10° SSW 02:08:48 80° W 02:14:59 10° N
Envisat 4.3 02:05:42 10° NNE 02:10:24 37° E 02:15:05 10° SSE
Cosmos 1048 Rocket 4.0 02:06:38 10° NNW 02:11:52 86° WSW 02:17:09 10° SSE
USA 238 DEB 3.6 02:06:34 12° SSW 02:12:22 79° SE 02:19:09 10° NE
USA 238 3.6 02:06:36 12° SSW 02:12:25 79° SE 02:19:12 10° NE
ASTEX 1 3.4 02:15:41 10° S 02:20:30 62° W 02:25:21 10° NNW
Cosmos 1606 Rocket 3.8 02:18:25 10° NNW 02:22:45 51° W 02:27:01 10° S
Cosmos 1125 Rocket 4.1 02:18:04 10° S 02:23:12 55° ESE 02:28:23 10° NNE
Cosmos 1867 3.6 02:18:38 10° SW 02:24:01 87° NW 02:29:33 10° NE
CZ-2C R/B 3.9 02:20:36 10° NE 02:24:38 30° E 02:28:40 10° SSE
IRAS Rocket 4.5 02:19:35 10° NNE 02:25:05 72° ESE 02:30:34 10° S
Cosmos 921 Rocket 3.3 02:21:09 10° NNW 02:25:13 46° WSW 02:29:12 10° S
ADEOS II 2.4 02:21:03 10° N 02:26:11 56° WNW 02:31:17 10° SW
Alouette 2 Rocket 3.6 02:23:16 10° S 02:27:59 75° ESE 02:31:40 10° NNE
BREEZE-M DEB (TANK) 4.3 02:21:53 10° SSW 02:28:02 24° SSE 02:30:48 10° E
Cosmos 494 Rocket 4.3 02:23:43 10° NNW 02:28:42 46° WSW 02:33:41 10° S
Cosmos 1844 3.8 02:28:18 10° SSW 02:34:04 84° WNW 02:39:56 10° NNE
Cosmos 1238 Rocket 2.7 02:34:25 10° N 02:37:58 70° E 02:41:03 10° SSE
USA 81 4.1 02:33:02 10° N 02:38:19 76° W 02:43:35 10° S
Cosmos 1726 Rocket 3.9 02:34:04 10° NNW 02:38:20 47° W 02:42:33 10° SSW
Resurs 1-4 Rocket 3.2 02:34:13 10° N 02:38:47 30° WNW 02:43:19 10° WSW
Cosmos-2242 4.3 02:37:07 10° N 02:41:17 44° ENE 02:45:24 10° SSE
Cosmos 724 4.3 02:38:24 10° NW 02:44:10 68° WSW 02:49:58 10° SSE
BREEZE M DEB (TANK) 3.9 02:47:14 10° WNW 02:58:58 83° SSW 03:02:33 10° ESE
